Powrót do katalogu

DELTA 1 DEB

AktywnySSO
NORAD 21373·DEBRIS·🇺🇸 United States

Wystrzelony Jun 12, 1975 z Vandenberg Space Force Base

Loading…

Następne Przeloty (najbliższe 24 godziny)

TLE

ŚwieżeSource: Space-Track

Epoka: Sep 14, 2026, 12:12 UTC

1 21373U 75052CT  26257.50894874  .00000057  00000-0  20107-3 0  9997
2 21373  99.9235 149.3579 0074282 171.9576 313.0475 13.32712786716212

Śledź DELTA 1 DEB w czasie rzeczywistym z AllMySat

Download on the App Store